Lid_Strength_Index
8 8 7 8 8 7 8 7 9 8 8 8 8 7 7 6 6 6 6 5 4 4 3 3 3 2 2 1 1 1 0 1 0 0 -0 -0 -0 -0 -1 -1 -1 -1 -1 -1
9 8 8 9 8 7 8 7 7 7 9 7 6 6 7 7 7 7 6 5 5 4 3 3 3 3 2 2 2 1 1 1 1 0 0 -0 -0 -0 -0 -1 -1 -1 -0 -0
11 8 8 11 10 9 9 8 8 8 8 7 8 8 7 7 6 6 6 5 5 5 5 4 3 2 2 2 1 1 1 1 1 0 1 0 0 -0 -0 -0 -0 -0 -0 -0
11 10 14 9 7 7 9 8 7 7 7 7 7 7 6 5 6 6 5 5 5 6 6 6 5 4 3 3 2 1 1 1 0 0 1 2 1 0 -0 -0 -0 -0 -0 -0
12 12 11 9 8 8 9 9 7 8 7 7 6 6 7 5 4 4 4 5 5 6 6 6 6 5 5 4 4 3 3 2 1 1 2 2 2 1 0 0 0 0 0 1
10 13 15 10 7 6 6 11 6 7 7 7 7 10 8 4 4 4 5 6 6 5 7 7 7 6 6 6 5 4 4 2 0 0 0 1 1 1 0 0 1 1 3 4
9 11 10 7 6 5 12 11 5 6 6 6 8 6 5 4 5 5 5 5 5 6 6 7 7 7 7 7 7 5 4 3 2 1 1 1 1 0 -0 0 0 1 2 3
9 11 13 5 6 9 7 5 4 5 5 5 6 5 4 4 4 4 5 6 6 6 6 6 5 6 6 6 5 5 4 4 3 3 3 2 2 2 1 0 1 0 0 2
9 10 6 4 5 4 4 5 4 4 4 4 5 5 4 4 3 3 3 3 3 5 4 4 4 4 5 5 4 4 3 4 4 3 3 2 1 0 1 0 0 1 2 2
8 7 6 5 4 3 3 4 4 3 4 4 4 4 4 3 3 3 3 4 4 4 4 5 4 4 3 4 3 3 4 4 4 3 2 1 1 1 1 0 0 0 2 2
8 6 5 5 4 4 3 3 3 3 3 3 4 4 3 3 3 3 4 4 3 4 4 4 5 4 4 4 4 4 4 4 4 4 3 3 4 5 5 7 7 2 3 3
7 5 5 5 4 3 3 3 3 3 4 3 3 3 3 3 3 4 4 4 4 4 4 5 5 5 5 4 4 4 5 5 5 5 5 4 5 7 11 11 11 12 12 9
5 3 4 4 3 3 3 3 3 3 3 3 3 3 3 3 4 5 5 5 5 4 4 4 5 5 5 5 5 5 5 6 6 6 6 6 6 6 8 11 11 12 13 13
3 4 5 4 4 3 3 2 2 2 2 2 2 2 2 3 4 4 5 5 5 5 5 5 5 5 5 5 5 6 6 9 6 6 6 6 6 6 6 7 7 8 12 12
4 3 3 2 3 2 2 2 3 3 2 2 2 2 2 2 2 2 1 3 4 5 5 5 5 5 5 5 5 6 7 7 7 7 7 7 7 7 6 6 6 6 7 11
3 3 3 3 3 3 3 3 3 3 2 2 2 2 2 2 1 1 1 1 3 4 4 5 5 4 4 5 5 6 6 8 7 7 7 7 7 7 7 6 6 6 7 8
4 4 4 4 3 3 3 2 2 2 2 2 2 1 1 2 2 2 1 1 1 1 2 4 4 3 4 4 5 6 6 7 7 6 6 6 6 6 6 6 7 7 7 10
2 2 2 2 2 3 3 2 2 2 2 2 1 1 2 2 2 2 1 1 1 1 0 0 1 1 2 2 3 4 4 5 5 5 5 6 6 6 6 6 6 7 7 8
3 3 2 2 2 2 2 2 2 1 1 1 2 2 1 1 1 1 1 1 1 2 1 -0 1 1 1 1 2 3 3 4 4 4 4 6 5 5 5 4 5 5 4 4
3 2 2 2 2 2 2 1 1 1 1 1 1 2 2 1 1 1 1 2 1 1 -0 -0 0 0 1 1 2 3 3 4 4 4 4 4 4 4 4 7 4 4 4 3
2 2 2 2 2 2 1 1 1 1 1 1 2 2 1 1 1 1 2 2 0 -0 -0 -0 -0 0 1 1 2 3 3 4 4 4 4 4 4 4 4 4 4 4 3 3
2 2 2 2 2 2 1 0 1 1 1 1 1 1 1 2 1 1 0 1 0 1 0 -0 -0 -0 1 2 3 3 3 4 4 4 4 4 4 4 4 4 4 4 4 3
2 2 2 2 2 2 3 2 2 2 1 1 1 1 1 1 1 2 2 -0 0 0 -0 -0 0 1 1 0 2 2 3 4 4 4 3 3 4 4 4 4 4 4 4 3
2 2 2 3 3 4 4 4 3 2 1 1 1 1 1 2 1 0 -0 0 1 1 0 0 0 1 1 -0 0 0 0 3 4 5 4 5 3 3 3 3 4 3 3 5
2 3 3 4 4 4 3 3 2 2 1 1 1 1 1 0 1 1 0 0 1 0 -0 1 1 1 -0 0 0 1 1 3 4 4 3 3 2 2 2 2 2 2 2 3
4 5 4 4 4 4 3 2 3 2 1 1 1 0 -0 -1 -1 -0 -0 0 -0 1 0 -0 0 0 0 0 1 1 2 3 3 3 3 3 2 2 2 1 1 1 2 2
5 6 4 4 3 3 2 2 1 2 1 1 1 0 -0 -1 -0 0 1 0 0 0 0 0 -0 -0 0 0 0 0 0 1 3 3 2 3 2 2 1 1 1 0 1 1